FW7508 Weather Reports


time (UTC)temp
C
wind
direction
speed
KPH
gust
KPH
rain 1hr
cm
rain 24hr
cm
rain mn
cm
humidity
%
barometer
mb
20260906133648 18 1 4.8 4.8 0.00 0.00 0.00 84 1023.4
20260906133143 18 257 0.0 0.0 0.00 0.00 0.00 85 1023.4
20260906132639 18 313 1.6 1.6 0.00 0.00 0.00 85 1023.5
20260906132135 18 299 0.0 0.0 0.00 0.00 0.00 86 1023.4
20260906131630 18 312 0.0 0.0 0.00 0.00 0.00 87 1023.5
20260906131125 17 292 0.0 0.0 0.00 0.00 0.00 87 1023.5
20260906130621 17 258 0.0 1.6 0.00 0.00 0.00 89 1023.7
20260906130121 17 334 1.6 3.2 0.00 0.00 0.00 89 1023.5
20260906125619 17 20 0.0 1.6 0.00 0.00 0.00 91 1023.4
20260906125118 16 317 0.0 1.6 0.00 0.00 0.00 95 1023.5
20260906124614 16 327 0.0 0.0 0.00 0.00 0.00 98 1023.3
20260906124108 15 299 0.0 0.0 0.00 0.00 0.00 99 1023.4
20260906123607 15 295 0.0 0.0 0.00 0.00 0.00 99 1023.4
20260906123103 15 296 0.0 0.0 0.00 0.00 0.00 99 1023.3
20260906122601 15 273 0.0 0.0 0.00 0.00 0.00 99 1023.2
20260906122058 14 303 0.0 0.0 0.00 0.00 0.00 99 1023.3
20260906121554 14 305 0.0 0.0 0.00 0.00 0.00 99 1023.3
20260906121051 14 312 0.0 0.0 0.00 0.00 0.00 99 1023.1
20260906120545 14 307 0.0 0.0 0.00 0.00 0.00 99 1023.2
20260906120043 14 306 0.0 0.0 0.00 0.00 0.00 99 1022.8
20260906115542 13 309 0.0 0.0 0.00 0.00 0.00 99 1023.1
20260906115038 13 309 0.0 0.0 0.00 0.00 0.00 99 1022.9
20260906114532 13 309 0.0 0.0 0.00 0.00 0.00 99 1022.9
20260906114028 13 309 0.0 0.0 0.00 0.00 0.00 99 1023.0
20260906113526 13 309 0.0 0.0 0.00 0.00 0.00 99 1023.0
20260906113022 13 309 0.0 0.0 0.00 0.00 0.00 99 1022.8
20260906112517 13 307 0.0 0.0 0.00 0.00 0.00 99 1022.7
20260906112013 13 307 0.0 0.0 0.00 0.00 0.00 99 1022.4
20260906111513 13 308 0.0 0.0 0.00 0.00 0.00 99 1022.5
20260906111008 13 308 0.0 0.0 0.00 0.00 0.00 99 1022.6
20260906110503 13 307 0.0 0.0 0.00 0.00 0.00 99 1022.5
20260906110002 13 306 0.0 0.0 0.00 0.00 0.00 99 1022.4
20260906105457 13 306 0.0 0.0 0.00 0.00 0.00 99 1022.4
20260906104953 14 306 0.0 0.0 0.00 0.00 0.00 99 1022.7
20260906104451 14 306 0.0 0.0 0.00 0.00 0.00 99 1022.6
20260906103951 14 307 0.0 0.0 0.00 0.00 0.00 99 1022.5
20260906103449 14 311 0.0 1.6 0.00 0.00 0.00 99 1022.5
20260906102945 14 307 0.0 0.0 0.00 0.00 0.00 99 1022.3
20260906102445 14 320 1.6 1.6 0.00 0.00 0.00 99 1022.0
20260906101945 14 307 0.0 0.0 0.00 0.00 0.00 99 1022.3
20260906101440 14 306 0.0 0.0 0.00 0.00 0.00 99 1022.3
20260906100936 14 307 0.0 0.0 0.00 0.00 0.00 99 1022.2
20260906100436 14 307 0.0 0.0 0.00 0.00 0.00 99 1022.3
20260906095930 14 311 0.0 0.0 0.00 0.00 0.00 99 1022.3
20260906095425 14 314 0.0 0.0 0.00 0.00 0.00 99 1022.4
20260906094920 14 315 0.0 1.6 0.00 0.00 0.00 99 1022.3
20260906094414 15 307 0.0 0.0 0.00 0.00 0.00 99 1022.3
20260906093910 15 304 0.0 0.0 0.00 0.00 0.00 99 1022.0
20260906093407 15 310 0.0 0.0 0.00 0.00 0.00 99 1022.1
20260906092901 14 309 0.0 0.0 0.00 0.00 0.00 99 1022.2
20260906092401 15 309 0.0 0.0 0.00 0.00 0.00 99 1022.2
20260906091856 15 290 0.0 0.0 0.00 0.00 0.00 99 1022.4
20260906091352 15 290 0.0 0.0 0.00 0.00 0.00 99 1022.2
20260906090849 15 290 0.0 0.0 0.00 0.00 0.00 99 1022.2
20260906090348 15 290 0.0 0.0 0.00 0.00 0.00 99 1022.0
20260906085842 15 290 0.0 0.0 0.00 0.00 0.00 98 1022.1
20260906085341 15 290 0.0 0.0 0.00 0.00 0.00 98 1022.2
20260906084836 15 290 0.0 0.0 0.00 0.00 0.00 98 1022.0
20260906084336 15 290 0.0 0.0 0.00 0.00 0.00 98 1022.1
20260906083831 15 290 0.0 0.0 0.00 0.00 0.00 97 1021.8
20260906083326 15 290 0.0 0.0 0.00 0.00 0.00 97 1022.0
20260906082820 15 290 0.0 0.0 0.00 0.00 0.00 97 1021.8
20260906082316 15 290 0.0 0.0 0.00 0.00 0.00 97 1021.7
20260906081811 15 290 0.0 0.0 0.00 0.00 0.00 97 1021.6
20260906081307 15 291 0.0 0.0 0.00 0.00 0.00 97 1021.3
20260906080803 15 292 0.0 0.0 0.00 0.00 0.00 97 1021.6
20260906080259 15 300 0.0 0.0 0.00 0.00 0.00 98 1021.3
20260906075758 15 309 0.0 0.0 0.00 0.00 0.00 98 1021.3
20260906075253 15 309 0.0 0.0 0.00 0.00 0.00 97 1021.3
20260906074748 15 309 0.0 0.0 0.00 0.00 0.00 97 1021.1
20260906074248 15 316 0.0 0.0 0.00 0.00 0.00 97 1021.2
20260906073747 15 316 0.0 0.0 0.00 0.00 0.00 97 1021.1
20260906073242 15 315 0.0 0.0 0.00 0.00 0.00 97 1021.2
20260906072738 16 315 0.0 0.0 0.00 0.00 0.00 97 1021.4
20260906072234 16 321 1.6 1.6 0.00 0.00 0.00 97 1021.3
20260906071729 16 309 0.0 0.0 0.00 0.00 0.00 97 1021.1
20260906071224 16 315 0.0 1.6 0.00 0.00 0.00 97 1021.2
20260906070721 16 298 0.0 0.0 0.00 0.00 0.00 96 1021.1
20260906070216 16 305 0.0 0.0 0.00 0.00 0.00 96 1021.2
20260906065715 16 303 0.0 0.0 0.00 0.00 0.00 96 1021.1
20260906065211 16 299 0.0 0.0 0.00 0.00 0.00 96 1021.1
20260906064706 16 309 0.0 0.0 0.00 0.00 0.00 96 1021.3
20260906064202 16 313 0.0 0.0 0.00 0.00 0.00 96 1021.4
20260906063656 16 313 0.0 0.0 0.00 0.00 0.00 95 1021.4
20260906063152 16 311 0.0 0.0 0.00 0.00 0.00 95 1021.4
20260906062648 16 311 0.0 0.0 0.00 0.00 0.00 94 1021.3
20260906062146 16 311 0.0 0.0 0.00 0.00 0.00 94 1021.3
20260906061643 16 299 0.0 0.0 0.00 0.00 0.00 94 1021.3
20260906061143 16 293 0.0 0.0 0.00 0.00 0.00 94 1021.4
20260906060639 16 305 3.2 3.2 0.00 0.00 0.00 94 1021.3
20260906060136 17 315 0.0 1.6 0.00 0.00 0.00 94 1021.3
20260906055632 17 309 0.0 0.0 0.00 0.00 0.00 94 1021.3
20260906055127 17 314 0.0 0.0 0.00 0.00 0.00 94 1021.0
20260906054621 17 314 0.0 1.6 0.00 0.00 0.00 94 1021.0
20260906054117 17 300 0.0 0.0 0.00 0.00 0.00 94 1021.1
20260906053613 17 284 0.0 0.0 0.00 0.00 0.00 94 1021.1
20260906053109 17 309 0.0 0.0 0.00 0.00 0.00 93 1020.9
20260906052604 17 304 0.0 0.0 0.00 0.00 0.00 93 1021.1
20260906052101 17 305 0.0 0.0 0.00 0.00 0.00 93 1021.1
20260906051556 17 292 0.0 0.0 0.00 0.00 0.00 92 1020.9
20260906051051 17 307 0.0 1.6 0.00 0.00 0.00 92 1020.8
20260906050546 17 301 0.0 0.0 0.00 0.00 0.00 92 1021.1
20260906050042 17 298 0.0 0.0 0.00 0.00 0.00 92 1020.9
20260906045539 18 290 0.0 0.0 0.00 0.00 0.00 92 1021.0
20260906045036 18 306 0.0 0.0 0.00 0.00 0.00 92 1020.9
20260906044531 18 301 0.0 0.0 0.00 0.00 0.00 92 1020.8
20260906044026 18 298 0.0 0.0 0.00 0.00 0.00 92 1020.8
20260906043522 18 290 0.0 0.0 0.00 0.00 0.00 92 1020.9
20260906043018 18 302 0.0 0.0 0.00 0.00 0.00 93 1020.8
20260906042516 18 305 0.0 0.0 0.00 0.00 0.00 94 1020.8
20260906042011 17 285 0.0 0.0 0.00 0.00 0.00 96 1020.4
20260906041508 17 300 0.0 0.0 0.00 0.00 0.00 97 1020.5
20260906041007 17 313 0.0 1.6 0.00 0.00 0.00 98 1020.5
20260906040502 17 309 0.0 0.0 0.00 0.00 0.00 99 1020.3
20260906035957 18 312 0.0 0.0 0.00 0.18 0.18 99 1020.2
20260906035452 18 292 0.0 0.0 0.00 0.18 0.18 99 1020.2
20260906034949 18 288 0.0 0.0 0.00 0.18 0.18 99 1020.2
20260906034448 18 287 0.0 0.0 0.00 0.18 0.18 99 1020.2
20260906033938 18 287 0.0 0.0 0.00 0.18 0.18 99 1020.2
20260906033438 18 287 0.0 0.0 0.00 0.18 0.18 99 1020.2
20260906032934 18 285 0.0 0.0 0.00 0.18 0.18 99 1020.3
20260906032430 18 285 0.0 0.0 0.00 0.18 0.18 99 1020.1
20260906031924 18 285 0.0 0.0 0.00 0.18 0.18 99 1020.1
20260906031420 19 285 0.0 0.0 0.00 0.18 0.18 99 1019.9
20260906030915 19 285 0.0 0.0 0.00 0.18 0.18 99 1019.9
20260906030410 19 285 0.0 0.0 0.00 0.18 0.18 99 1019.8
20260906025904 19 284 0.0 0.0 0.00 0.18 0.18 99 1020.0
20260906025359 19 284 0.0 0.0 0.00 0.18 0.18 99 1020.0
20260906024858 20 284 0.0 0.0 0.00 0.18 0.18 99 1019.8
20260906024357 20 284 0.0 0.0 0.00 0.18 0.18 99 1020.1
20260906023852 20 285 0.0 0.0 0.00 0.18 0.18 99 1019.9
20260906023349 20 284 0.0 0.0 0.00 0.18 0.18 99 1020.0
20260906022848 20 285 0.0 0.0 0.00 0.18 0.18 99 1020.0
20260906022343 20 285 0.0 0.0 0.00 0.18 0.18 99 1019.6
20260906021839 20 281 0.0 0.0 0.00 0.18 0.18 99 1019.7
20260906021338 20 281 0.0 0.0 0.00 0.18 0.18 99 1019.6
20260906020834 20 281 0.0 0.0 0.00 0.18 0.18 99 1019.6
20260906020333 20 281 0.0 0.0 0.00 0.18 0.18 99 1019.6
20260906015828 20 281 0.0 0.0 0.00 0.18 0.18 99 1019.5
20260906015327 20 281 0.0 0.0 0.00 0.18 0.18 99 1019.4
20260906014826 21 281 0.0 0.0 0.00 0.18 0.18 98 1019.5
20260906014322 21 281 0.0 0.0 0.00 0.18 0.18 98 1019.3
20260906013818 21 281 0.0 0.0 0.00 0.18 0.18 98 1019.4
20260906013313 21 281 0.0 0.0 0.00 0.18 0.18 97 1019.5
20260906012808 21 281 0.0 0.0 0.00 0.18 0.18 97 1019.4
20260906012306 21 281 0.0 0.0 0.00 0.18 0.18 97 1019.0
20260906011758 21 281 0.0 0.0 0.00 0.18 0.18 97 1019.1
20260906011258 21 281 0.0 0.0 0.00 0.18 0.18 97 1019.2
20260906010754 21 281 0.0 0.0 0.00 0.18 0.18 96 1019.0
20260906010249 21 281 0.0 0.0 0.00 0.18 0.18 96 1019.1
20260906005745 22 281 0.0 0.0 0.00 0.18 0.18 96 1019.0
20260906005244 22 281 0.0 0.0 0.00 0.18 0.18 95 1018.8
20260906004743 22 281 0.0 0.0 0.00 0.18 0.18 95 1018.9
20260906004233 22 281 0.0 0.0 0.00 0.18 0.18 94 1018.6
20260906003733 22 281 0.0 0.0 0.00 0.18 0.18 94 1018.6
20260906003229 22 281 0.0 0.0 0.00 0.18 0.18 94 1018.7
20260906002729 22 284 0.0 0.0 0.00 0.18 0.18 94 1018.6
20260906002229 22 285 0.0 0.0 0.00 0.18 0.18 94 1018.7
20260906001724 22 322 0.0 0.0 0.00 0.18 0.18 94 1018.6
20260906001219 22 307 0.0 0.0 0.00 0.18 0.18 94 1018.5
20260906000714 22 312 0.0 0.0 0.00 0.18 0.18 93 1018.5
20260906000211 22 309 0.0 0.0 0.00 0.18 0.18 93 1018.8
20260905235709 22 320 0.0 0.0 0.00 0.18 0.18 93 1018.8
20260905235204 22 320 0.0 0.0 0.00 0.18 0.18 92 1018.9
20260905234659 22 320 0.0 0.0 0.00 0.18 0.18 92 1018.7
20260905234154 22 320 1.6 1.6 0.00 0.18 0.18 92 1018.9
20260905233650 22 318 0.0 0.0 0.00 0.18 0.18 92 1019.1
20260905233149 22 298 0.0 1.6 0.00 0.18 0.18 92 1018.6
20260905232644 22 300 0.0 0.0 0.00 0.18 0.18 92 1018.7
20260905232140 22 294 0.0 0.0 0.00 0.18 0.18 92 1018.6
20260905231635 22 322 0.0 0.0 0.00 0.18 0.18 92 1018.9
20260905231131 23 296 0.0 0.0 0.00 0.18 0.18 91 1019.0
20260905230627 23 299 1.6 1.6 0.00 0.18 0.18 90 1018.7
20260905230125 23 288 0.0 0.0 0.00 0.18 0.18 89 1018.7
20260905225623 23 316 0.0 1.6 0.00 0.18 0.18 88 1018.8
20260905225114 23 332 3.2 3.2 0.00 0.18 0.18 87 1018.6
20260905224614 23 291 0.0 0.0 0.00 0.18 0.18 87 1018.7
20260905224113 23 291 0.0 0.0 0.00 0.18 0.18 86 1018.8
20260905223610 24 285 0.0 0.0 0.00 0.18 0.18 86 1018.8
20260905223107 24 285 0.0 0.0 0.00 0.18 0.18 85 1018.7
20260905222606 23 318 0.0 0.0 0.00 0.18 0.18 84 1018.8
20260905222102 23 291 0.0 0.0 0.00 0.18 0.18 86 1018.6
20260905221558 23 299 0.0 0.0 0.00 0.18 0.18 86 1018.6
20260905221054 23 299 0.0 0.0 0.00 0.18 0.18 86 1018.6
20260905220548 23 299 0.0 0.0 0.00 0.18 0.18 85 1018.5
20260905220045 24 273 0.0 0.0 0.00 0.18 0.18 85 1018.5
20260905215544 23 323 1.6 1.6 0.00 0.18 0.18 85 1018.3
20260905215040 23 315 1.6 1.6 0.00 0.18 0.18 84 1018.2
20260905214536 23 285 0.0 0.0 0.00 0.18 0.18 84 1018.1
20260905214031 23 286 0.0 1.6 0.00 0.18 0.18 84 1018.3
20260905213526 23 295 0.0 1.6 0.00 0.18 0.18 84 1018.3
20260905213022 24 328 0.0 1.6 0.00 0.18 0.18 84 1018.2
20260905212516 24 35 11.3 12.9 0.00 0.18 0.18 83 1018.1
20260905212017 24 277 0.0 1.6 0.00 0.18 0.18 83 1018.4
20260905211512 24 324 1.6 1.6 0.00 0.18 0.18 83 1018.3
20260905211007 24 16 8.0 9.7 0.00 0.18 0.18 84 1018.4
20260905210503 23 345 4.8 4.8 0.00 0.18 0.18 85 1018.3
20260905210002 23 285 0.0 0.0 0.00 0.18 0.18 86 1018.3
20260905205457 23 268 1.6 1.6 0.00 0.18 0.18 85 1018.3
20260905204955 23 301 3.2 4.8 0.00 0.18 0.18 86 1018.2
20260905204451 23 328 4.8 4.8 0.00 0.18 0.18 87 1018.4
20260905203950 23 324 3.2 4.8 0.00 0.18 0.18 87 1018.4
20260905203446 23 329 4.8 4.8 0.00 0.18 0.18 87 1018.3
20260905202941 23 316 1.6 1.6 0.00 0.18 0.18 88 1018.5
20260905202436 23 316 3.2 4.8 0.00 0.18 0.18 89 1018.4
20260905201932 23 314 3.2 3.2 0.00 0.18 0.18 89 1018.5
20260905201421 22 262 3.2 3.2 0.00 0.18 0.18 91 1018.4
20260905200921 22 162 4.8 8.0 0.00 0.18 0.18 91 1018.4
20260905200417 22 305 1.6 1.6 0.00 0.18 0.18 92 1018.5
20260905195915 22 233 0.0 0.0 0.00 0.18 0.18 93 1018.6
20260905195410 22 302 0.0 0.0 0.00 0.18 0.18 93 1018.6
20260905194906 22 319 1.6 4.8 0.00 0.18 0.18 93 1018.7
20260905194406 22 286 0.0 1.6 0.00 0.18 0.18 94 1018.7
20260905193906 22 345 4.8 4.8 0.00 0.18 0.18 95 1018.6
20260905193401 22 302 1.6 1.6 0.00 0.18 0.18 96 1018.8
20260905192856 22 3 4.8 8.0 0.00 0.18 0.18 97 1018.9
20260905192351 21 336 1.6 3.2 0.00 0.18 0.18 98 1018.6
20260905191851 21 289 0.0 0.0 0.00 0.18 0.18 98 1018.7
20260905191350 21 38 0.0 1.6 0.00 0.18 0.18 98 1018.7
20260905190849 21 288 0.0 0.0 0.00 0.18 0.18 99 1018.7
20260905190343 21 297 1.6 1.6 0.00 0.18 0.18 99 1018.9
20260905185841 21 295 3.2 4.8 0.00 0.18 0.18 99 1019.0
20260905185337 21 320 3.2 4.8 0.00 0.18 0.18 99 1018.8
20260905184836 21 297 1.6 1.6 0.18 0.18 0.18 99 1018.8
20260905184335 20 307 0.0 0.0 0.18 0.18 0.18 99 1019.1
20260905183833 20 300 0.0 0.0 0.00 0.15 0.15 99 1019.1
20260905183329 20 319 3.2 3.2 0.00 0.15 0.15 99 1019.2
20260905182824 20 283 0.0 1.6 0.13 0.15 0.15 99 1019.1
20260905182323 20 55 4.8 4.8 0.30 0.15 0.15 99 1019.1
20260905181819 20 323 3.2 3.2 0.30 0.13 0.13 99 1019.2
20260905181312 20 313 0.0 1.6 0.30 0.10 0.10 99 1019.4
20260905180812 20 315 1.6 3.2 0.36 0.08 0.08 98 1019.2
20260905180307 20 311 0.0 0.0 0.18 0.05 0.05 98 1019.0
20260905175802 20 322 1.6 1.6 0.18 0.05 0.05 98 1019.1
20260905175256 20 322 1.6 1.6 0.00 0.03 0.03 98 1019.2
20260905174752 20 314 0.0 1.6 0.00 0.03 0.03 97 1019.3
20260905174248 20 337 1.6 1.6 0.00 0.03 0.03 97 1019.0
20260905173743 20 292 0.0 0.0 0.00 0.03 0.03 97 1018.9
20260905173239 20 299 0.0 0.0 0.00 0.03 0.03 96 1019.0
20260905172738 20 67 6.4 11.3 0.00 0.03 0.03 95 1019.2
20260905172238 20 339 3.2 4.8 0.00 0.03 0.03 95 1019.0
20260905171734 20 253 0.0 1.6 0.00 0.03 0.03 96 1018.7
20260905171230 20 351 4.8 4.8 0.00 0.03 0.03 95 1019.0
20260905170726 20 303 0.0 1.6 0.00 0.03 0.03 96 1018.9
20260905170222 20 4 0.0 1.6 0.00 0.03 0.03 96 1019.2
20260905165721 20 284 0.0 0.0 0.00 0.03 0.03 96 1019.0
20260905165217 20 332 3.2 4.8 0.00 0.03 0.03 96 1018.9
20260905164716 20 318 1.6 3.2 0.00 0.03 0.03 96 1019.1
20260905164217 20 201 1.6 3.2 0.00 0.03 0.03 96 1019.0
20260905163712 20 106 1.6 4.8 0.00 0.03 0.03 96 1019.1
20260905163209 20 54 4.8 8.0 0.00 0.03 0.03 96 1018.9
20260905162705 20 287 0.0 0.0 0.00 0.03 0.03 96 1018.9
20260905162204 20 41 6.4 9.7 0.00 0.03 0.03 96 1018.8
20260905161659 20 263 3.2 4.8 0.00 0.03 0.03 96 1019.0
20260905161156 20 26 6.4 8.0 0.00 0.03 0.03 95 1018.9
20260905160650 20 304 1.6 1.6 0.00 0.03 0.03 96 1019.0
20260905160149 20 19 4.8 8.0 0.00 0.03 0.03 95 1018.8
20260905155644 20 72 4.8 8.0 0.00 0.03 0.03 95 1018.8
20260905155143 20 291 1.6 4.8 0.00 0.03 0.03 95 1018.7
20260905154638 20 266 0.0 1.6 0.00 0.03 0.03 95 1018.8
20260905154133 20 8 3.2 4.8 0.00 0.03 0.03 95 1018.5
20260905153629 20 279 0.0 0.0 0.00 0.03 0.03 95 1018.2
20260905153124 20 267 0.0 0.0 0.00 0.03 0.03 96 1018.5
20260905152619 20 31 0.0 3.2 0.00 0.03 0.03 95 1018.6
20260905152114 20 12 8.0 9.7 0.00 0.03 0.03 95 1018.3
20260905151609 20 334 3.2 4.8 0.13 0.03 0.03 94 1018.4
20260905151104 20 341 1.6 3.2 0.13 0.03 0.03 93 1018.4
20260905150559 20 282 1.6 3.2 0.00 0.00 0.00 92 1018.6
20260905150057 21 304 0.0 0.0 0.00 0.00 0.00 91 1018.5
20260905145550 21 144 3.2 3.2 0.00 0.00 0.00 91 1018.2
20260905145050 21 293 0.0 1.6 0.00 0.00 0.00 91 1018.5
20260905144545 21 286 1.6 1.6 0.00 0.00 0.00 90 1018.5
20260905144044 21 309 0.0 1.6 0.00 0.00 0.00 90 1018.5
20260905143543 21 289 0.0 0.0 0.00 0.00 0.00 90 1018.6
20260905143039 21 227 1.6 1.6 0.00 0.00 0.00 90 1018.4
20260905142537 21 7 3.2 3.2 0.00 0.00 0.00 90 1018.4
20260905142033 21 315 0.0 0.0 0.00 0.00 0.00 91 1018.2
20260905141527 21 324 3.2 4.8 0.00 0.00 0.00 91 1018.3
20260905141023 21 339 4.8 4.8 0.00 0.00 0.00 91 1018.3
20260905140518 21 125 8.0 9.7 0.00 0.00 0.00 91 1018.6
20260905140017 21 35 3.2 3.2 0.00 0.00 0.00 91 1018.4
20260905135513 21 339 6.4 8.0 0.00 0.00 0.00 91 1018.1
20260905135008 21 318 3.2 3.2 0.00 0.00 0.00 91 1018.1
20260905134507 21 309 0.0 0.0 0.00 0.00 0.00 91 1018.0